Regional Weather Roundup
Issued by NWS State College, PA

Home | Current Version | Previous Version | Graphics & Text | Print | Product List | Glossary On
Versions: 1 2 3 4 5 6 7 8 9 10 11 12 13 14 15 16 17 18 19 20 21 22 23 24 25 26 27 28 29 30 31 32 33 34 35 36 37 38 39 40 41 42 43 44 45 46 47 48 49 50
000
ASUS41 KCTP 241903
RWRCTP

REGIONAL WEATHER ROUNDUP
NATIONAL WEATHER SERVICE STATE COLLEGE PA
200 PM EST SAT FEB 24 2018

Note: "fair" indicates few or no clouds below 12,000 feet with no
significant weather and/or obstructions to visibility.

* = STATION THAT DOES NOT REPORT PRECIPITATION /E.G. RAIN...SNOW...ETC/
    THUNDER OR FOG.

PAZ002>004-007>009-013>016-020>023-029>032-242000-
WESTERN PENNSYLVANIA

CITY           SKY/WX    TMP DP  RH WIND       PRES   REMARKS
ERIE           CLOUDY    39  31  72 NE14      30.17R
MEADVILLE      LGT RAIN  40  39  97 E6        30.10F FOG
FRANKLIN*      LGT RAIN  42  41  96 SE9       30.11F
NEW CASTLE     LGT RAIN  44  44 100 E5        30.13F FOG
BEAVER COUNTY  LGT RAIN  45  43  93 CALM      30.13F
BUTLER*        LGT RAIN  45  43  93 NE7       30.14S
PITTSBURGH INT DRIZZLE   47  45  93 NE9       30.11F
PITTSBURGH     LGT RAIN  46  43  89 NE8       30.10S
INDIANA*       CLOUDY    46  45  93 E7        30.15F FOG
LATROBE        LGT RAIN  46  46 100 NE9       30.12F
WASHINGTON CO* LGT RAIN  47  45  93 N8        30.14R FOG
$$

PAZ004>006-010>012-017>019-024>028-033>037-041-042-045-046-049>053-242000-
CENTRAL PENNSYLVANIA

CITY           SKY/WX    TMP DP  RH WIND       PRES   REMARKS
BRADFORD       CLOUDY    42  39  89 CALM      30.12F
DUBOIS         LGT RAIN  43  40  89 NE3       30.13S FOG
CLEARFIELD     LGT RAIN  44  43  96 N5        30.14F
JOHNSTOWN      RAIN      43  41  93 E8        30.10F FOG
ALTOONA        RAIN      45  43  93 NE8       30.15R FOG
STATE COLLEGE  LGT RAIN  43  43 100 CALM      30.16R
WILLIAMSPORT   RAIN      44  44 100 CALM      30.16S FOG
SELINSGROVE    LGT RAIN  45  42  89 NW3       30.18R FOG
FT INDIANTOWN  CLOUDY    50 N/A N/A CALM      30.13F
CAPITAL CITY   LGT RAIN  49  46  90 NE3       30.14F
HARRISBURG     CLOUDY    47  45  93 CALM      30.13F FOG
YORK           LGT RAIN  47  47 100 CALM      30.13F FOG
$$

PAZ038>040-043-044-047-048-054-055-060>062-067>071-242000-
EASTERN PENNSYLVANIA

CITY           SKY/WX    TMP DP  RH WIND       PRES   REMARKS
SCRANTON       LGT RAIN  44  42  93 N3        30.15F FOG
MOUNT POCONO   LGT RAIN  41  40  96 NW3       30.10F
ALLENTOWN      CLOUDY    52  41  66 N6        30.14F
QUAKERTOWN*    CLOUDY    50  46  87 CALM      30.14F
READING        CLOUDY    49  48  97 CALM      30.12F
LANCASTER      LGT RAIN  48  46  93 E3        30.12F FOG
COATESVILLE    DRIZZLE   46  46 100 CALM      30.15F
POTTSTOWN      CLOUDY    47  46  97 CALM      30.16F FOG
BLUE BELL      CLOUDY    46  46 100 CALM      30.16F
DOYLESTOWN     CLOUDY    48  45  89 N6        30.13F
WILLOW GROVE   NOT AVBL
NORTH PHILA    LGT RAIN  51  46  83 N5        30.17S
PHILADELPHIA   LGT RAIN  48  47  96 N3        30.16S FOG
$$




USA.gov is the U.S. government's official web portal to all federal, state and local government web resources and services.